Location: Newark
(39.6867°N, 100.6772°W)
Time: 13:06:55
(UTC+00:00)

ISS - Pass Details

Date: 23 September 2019
Orbit: 411 x 421 km, 51.6° (Epoch: 21 October)

Event Time Altitude Azimuth Distance (km) Brightness Sun altitude
Rises 01:25:45 0° 244° (WSW) 2,334 1.1 -9.6°
Reaches altitude 10° 01:27:52 10° 250° (WSW) 1,474 0.1 -10.0°
Maximum altitude 01:31:05 48° 326° (NNW) 543 -2.9 -10.6°
Drops below altitude 10° 01:34:19 10° 43° (NE) 1,481 -1.3 -11.2°
Enters shadow 01:35:02 - 46° (NE) 1,763 -0.9 -11.4°
